Terug naar catalogus

HAWK-2B

ActiefMilitairSSO
NORAD 47508·PAYLOAD·🇺🇸 United States

Gelanceerd Jan 24, 2021 vanaf Cape Canaveral Space Force Station

Loading…

Volgende Passages (komende 24 uur)

TLE

VersSource: Space-Track

Epoch: Sep 14, 2026, 13:41 UTC

1 47508U 21006CZ  26257.57069272  .00005472  00000-0  15920-3 0  9991
2 47508  97.2109 299.0448 0005228 231.5200 128.5576 15.35827735313210

Volg HAWK-2B in realtime met AllMySat

Download on the App Store